Regional Weather Roundup
Issued by NWS

Home | Current Version | Previous Version | Text Only | Print | Product List | Glossary Off
Versions: 1 2 3 4 5 6 7 8 9 10 11 12 13 14 15 16 17 18 19 20 21 22 23 24 25 26 27 28 29 30 31 32 33 34 35 36 37 38 39 40 41 42 43 44 45 46 47 48 49 50

000
ASUS45 KABQ 261910
RWRNM
NEW MEXICO REGIONAL WEATHER ROUNDUP
NATIONAL WEATHER SERVICE ALBUQUERQUE NM
1200 PM MST SUN FEB 26 2017

NOTE: "FAIR" MEANS FEW OR NO CLOUDS BELOW 12,000 FEET AGL WITH NO
       SIGNIFICANT WEATHER OR OBSTRUCTIONS TO VISION.

      THIS PRODUCT IS RELEASED AS TWO VERSIONS.  ONE VERSION NEAR
      THE TOP OF THE HOUR CONTAINING PRELIMINARY DATA FROM ALBUQUERQUE
      AND OTHER STATIONS.  A FINAL VERSION WITH ADDITIONAL DATA IS
      ISSUED ABOUT 10 MINUTES AFTER THE HOUR.

NMZ501-503-504-510>518-262000-
NORTHWEST PLATEAU/NORTHCENTRAL MOUNTAINS

CITY           SKY/WX    TMP DP  RH WIND       PRES   REMARKS
FARMINGTON     FAIR      41  10  28 MISG      29.92F
LOS ALAMOS     PTSUNNY   34  10  37 W9G18     29.90F WCI  27
SANTA FE       FAIR      42  15  33 W13G22    29.90F
TAOS           PTSUNNY   36   5  27 W15       29.87F WCI  26
ANGEL FIRE     CLOUDY    29   9  43 W15G22    29.85F WCI  18

$$
NMZ402-403-502-505>509-262000-
WESTCENTRAL MOUNTAINS/SOUTHWEST MOUNTAINS

CITY           SKY/WX    TMP DP  RH WIND       PRES   REMARKS
GALLUP         CLOUDY    35  19  52 W5        29.95F WCI  31
GRANTS         CLOUDY    38  17  42 NW12G18   29.95F WCI  30
SILVER CITY    CLOUDY    54  12  18 SW16G25   29.94F

$$
NMZ407-409-411-412-262000-
SOUTHERN DESERTS

CITY           SKY/WX    TMP DP  RH WIND       PRES   REMARKS
DEMING         FAIR      63  20  19 W25G33    29.91F
LAS CRUCES     FAIR      58  10  14 SW14G22   29.94F
HOLLOMAN AFB   CLOUDY    57   4  12 S9        29.96F
ALAMOGORDO     CLOUDY    55  10  16 S8        29.93F
T OR C         CLOUDY    55   9  16 SE6       29.90F

$$
NMZ519>523-262000-
CENTRAL VALLEYS/CENTRAL HIGHLANDS

CITY           SKY/WX    TMP DP  RH WIND       PRES   REMARKS
ALBUQUERQUE    PTSUNNY   44  19  36 VRB3      29.94F
DOUBLE EAGLE   PTSUNNY   39  19  45 VRB6      29.94F WCI  35
MORIARTY ARPT  FAIR      45  19  35 W15       29.93F
CLINES CORNERS PTSUNNY   39  14  36 W26G33    29.91F WCI  28
BELEN          CLOUDY    43  17  34 N5        29.94F
SOCORRO        CLOUDY    47  16  29 N6        29.93F

$$
NMZ524>526-539-540-262000-
SOUTHCENTRAL MOUNTAINS

CITY           SKY/WX    TMP DP  RH WIND       PRES   REMARKS
RUIDOSO        FAIR      48   7  18 W25G35    29.93F

$$
NMZ527>531-262000-
NORTHEAST HIGHLANDS/NORTHEAST PLAINS

CITY           SKY/WX    TMP DP  RH WIND       PRES   REMARKS
LAS VEGAS      FAIR      45   7  21 W28G35    29.82F
RATON          FAIR      46   3  17 W16G23    29.79F
CLAYTON        FAIR      51  11  20 W14G23    29.82F

$$
NMZ532>537-262000-
EASTCENTRAL PLAINS

CITY           SKY/WX    TMP DP  RH WIND       PRES   REMARKS
TUCUMCARI      FAIR      55  16  21 W9G22     29.85F
CANNON AFB     PTSUNNY   55  14  20 W28G33    29.87F
CLOVIS AIRPORT PTSUNNY   57  18  21 W26G37    29.87F

$$
NMZ028-029-538-262000-
SOUTHEAST PLAINS

CITY           SKY/WX    TMP DP  RH WIND       PRES   REMARKS
ROSWELL        FAIR      60   9  13 E3          N/A
ARTESIA        FAIR      63  16  16 E8        29.88F
CARLSBAD       FAIR      66   8  10 W21       29.86F
HOBBS          SUNNY     63   9  12 W6        29.90F


$$




USA.gov is the U.S. government's official web portal to all federal, state and local government web resources and services.